Wind_Speed
14 15 16 18 17 14 15 15 14 13 12 13 14 12 10 25 29 31 30 28 25 23 22 23 22 21 21 20 18 16 17 16 12 9 7 6 7 6 5 6 7 8 11
22 22 22 23 22 19 17 15 14 15 15 14 16 16 14 18 26 29 31 29 28 27 27 26 25 23 22 20 18 17 19 17 14 12 9 8 7 5 5 6 6 7 10
27 25 26 26 25 23 21 18 16 16 18 18 18 19 21 24 26 29 31 30 29 29 28 28 29 26 25 24 22 20 20 19 18 16 15 14 13 10 10 7 9 9 8
35 29 31 32 31 28 27 24 22 21 21 21 23 25 24 23 25 26 28 29 29 30 30 29 28 26 27 27 27 25 23 21 19 18 17 17 17 17 15 15 15 14 14
38 21 37 38 36 29 28 27 27 25 25 27 27 27 27 26 25 26 27 28 29 31 32 33 32 32 32 31 30 28 24 21 19 19 20 19 17 19 20 20 19 21 21
33 30 25 54 49 42 37 39 37 37 35 32 29 28 30 31 31 32 31 30 33 33 34 35 35 37 36 34 33 29 26 26 25 22 22 20 22 26 25 26 26 23 25
30 33 35 43 49 50 46 51 47 44 50 41 38 37 35 37 36 36 37 38 38 38 37 37 37 37 37 35 33 31 30 29 28 26 22 24 26 30 30 28 25 28 28
30 37 37 46 53 55 58 40 39 54 56 37 45 41 41 42 41 40 42 42 40 40 40 41 42 40 39 38 38 35 33 32 32 31 28 31 32 33 34 34 31 33 32
29 25 25 29 49 54 49 60 48 37 28 25 28 33 29 32 38 41 54 51 46 45 45 46 50 48 44 45 43 40 37 36 38 37 36 36 38 36 36 39 34 33 28
31 35 33 28 35 37 41 36 20 19 17 18 27 28 33 33 35 29 28 40 41 38 48 53 58 61 57 54 50 44 43 42 43 44 46 45 41 42 40 41 37 33 28
35 30 31 37 40 41 38 42 38 26 22 26 29 34 35 33 32 33 34 37 38 40 39 44 61 47 47 58 49 43 43 42 39 42 41 45 44 40 36 30 30 25 28
40 38 34 33 37 40 40 37 35 29 24 30 29 33 35 38 39 38 41 43 46 41 41 42 42 35 35 38 53 41 41 37 39 42 45 36 36 32 30 30 29 28 30
33 37 39 41 41 40 37 37 36 33 33 37 39 43 44 50 46 46 44 43 43 42 44 41 41 41 37 39 39 38 40 39 40 42 38 31 26 31 34 32 32 31 31
36 38 42 43 44 43 44 43 43 40 41 46 47 48 52 52 51 50 49 49 45 46 45 43 41 39 38 38 39 39 41 41 41 42 40 35 33 34 35 34 34 35 34
43 43 46 51 52 49 50 50 52 53 52 53 55 57 57 56 51 52 52 53 50 49 49 45 43 41 41 40 40 39 40 44 42 41 41 40 38 37 38 40 40 39 38
50 51 50 51 49 52 55 58 59 57 55 58 56 59 57 53 54 57 60 63 55 53 52 49 47 47 46 45 43 41 41 43 44 45 43 43 42 42 43 44 43 42 42
57 53 49 48 47 49 55 58 60 62 60 62 62 64 63 68 66 59 53 64 56 54 52 53 53 52 52 48 48 46 43 43 47 46 47 46 46 46 47 48 48 46 46
50 48 46 45 47 49 56 62 67 57 63 59 64 65 72 68 64 60 61 57 58 58 54 55 56 57 56 52 51 51 48 47 46 49 49 48 47 48 49 49 49 49 49
42 42 43 42 42 46 53 59 55 50 59 66 60 66 76 68 61 62 63 59 56 54 54 57 59 57 55 54 54 54 52 51 50 50 50 51 51 51 50 50 50 50 50
45 45 44 43 38 41 45 48 42 44 56 63 47 53 52 61 65 63 63 60 59 56 55 53 56 61 59 57 55 55 56 55 55 55 54 53 53 53 54 54 53 53 52
44 44 44 39 35 35 38 35 31 32 45 58 59 53 55 63 58 59 64 59 57 56 55 53 53 55 58 61 60 57 56 56 56 57 57 57 56 56 56 56 55 54 53
44 43 43 41 37 32 29 27 14 21 27 33 41 34 40 53 60 57 56 58 58 57 56 54 53 53 57 57 60 58 55 55 54 55 56 57 57 57 57 55 55 54 52
43 42 39 36 32 29 21 19 19 18 25 38 38 43 43 40 44 47 50 52 55 56 55 54 55 49 51 56 57 59 57 54 55 54 54 54 56 54 54 55 55 55 53
37 36 34 32 26 22 19 13 14 19 16 18 26 33 34 36 40 44 47 51 53 51 50 52 51 52 49 50 55 54 53 53 54 52 52 53 53 53 54 54 53 51 52
32 30 29 28 29 28 24 18 14 14 17 20 21 22 26 30 37 41 44 45 46 45 46 48 48 48 46 49 52 57 55 53 55 50 50 51 53 53 53 52 51 51 49
32 32 31 29 24 22 19 17 14 15 16 16 20 25 28 30 31 32 35 36 37 37 38 38 40 42 44 44 49 54 55 53 54 56 54 52 55 55 54 51 50 50 48
Wind_Direction
243 234 242 249 252 248 259 269 273 266 260 249 243 239 252 207 199 196 198 200 205 207 209 214 216 215 224 230 228 222 215 224 222 235 239 227 253 260 259 249 246 229 235
231 235 229 234 239 242 246 251 256 257 254 242 241 232 222 204 200 204 206 209 212 213 216 218 220 219 220 226 223 201 205 214 228 231 236 237 232 241 255 269 265 242 228
226 234 239 236 231 231 237 238 245 250 248 242 229 227 221 220 217 218 219 219 224 226 226 224 226 218 217 219 217 210 210 217 213 221 232 240 250 257 250 252 267 265 261
214 218 234 240 241 236 232 231 234 244 243 241 235 224 222 223 226 229 232 234 237 236 232 226 226 223 222 221 223 227 226 223 224 231 240 248 257 265 261 258 263 267 264
301 242 255 238 229 235 243 236 236 238 245 244 235 233 230 229 235 234 232 231 231 231 230 228 224 221 224 228 232 235 238 242 244 247 253 254 258 262 276 277 271 273 269
267 270 267 253 256 225 229 231 231 237 230 239 238 240 239 235 233 234 236 239 239 238 235 231 229 227 228 229 236 244 248 253 254 253 254 263 270 275 276 279 282 287 287
267 272 261 261 263 268 232 231 230 231 237 223 226 232 237 239 234 234 232 233 235 235 236 238 241 242 245 247 244 245 250 255 260 260 258 260 267 275 278 275 285 283 288
288 270 265 268 265 264 275 256 242 243 240 208 225 223 231 237 239 239 242 237 237 237 239 240 239 239 240 243 246 248 249 255 261 261 260 257 255 259 268 275 269 271 277
281 270 278 272 264 271 285 280 282 229 206 221 224 234 247 263 257 249 237 234 237 236 239 241 241 237 233 236 236 241 248 253 262 267 265 263 265 262 262 266 266 275 278
272 273 283 276 281 278 289 296 307 287 259 256 252 246 251 254 261 266 265 236 245 247 253 248 252 244 238 234 234 239 244 252 258 261 262 258 264 264 260 259 260 268 276
290 287 283 284 284 286 281 286 295 283 260 262 263 258 253 250 243 246 248 251 252 255 263 266 260 272 264 228 235 242 253 258 266 270 276 275 260 263 261 264 253 259 269
298 299 294 285 281 280 279 278 279 261 251 261 262 266 252 260 251 242 242 244 252 256 261 271 279 273 255 244 237 257 263 275 277 274 269 265 258 260 260 255 261 261 268
292 291 293 294 293 287 285 280 278 261 246 250 256 262 265 267 265 256 251 252 254 258 259 260 264 270 268 270 274 269 267 267 268 270 272 272 264 262 264 265 266 270 273
295 292 291 293 292 287 283 279 277 263 253 256 246 246 249 252 255 249 251 253 251 253 255 261 262 265 267 269 268 269 265 259 255 260 266 263 260 261 264 265 268 272 277
299 296 293 293 290 284 279 274 270 267 261 250 250 252 248 252 248 245 247 249 251 253 258 258 259 259 260 261 260 260 261 261 255 252 259 263 263 261 262 266 269 274 281
301 300 296 291 289 287 278 272 267 261 259 252 249 248 245 235 244 246 250 248 247 249 251 257 257 258 258 259 259 258 258 260 259 254 253 257 259 260 262 266 271 276 282
302 300 294 290 291 289 279 277 271 262 253 248 249 251 243 240 248 248 249 248 244 249 253 255 258 258 257 256 258 258 257 256 259 259 259 257 261 263 264 267 272 276 279
305 303 303 299 292 293 291 279 276 269 248 246 243 240 246 242 242 245 244 242 245 247 249 253 254 255 255 257 257 257 257 257 257 259 260 261 260 263 266 269 271 274 277
313 315 315 306 297 299 294 289 280 263 233 230 241 242 232 240 242 244 248 250 249 251 253 253 254 254 254 254 254 256 256 257 256 256 257 259 261 263 266 268 270 273 276
323 321 314 315 308 311 306 300 286 252 229 228 239 243 244 243 235 246 250 252 253 252 253 257 255 253 252 253 254 253 254 254 254 255 256 257 260 263 266 268 271 273 275
321 323 321 321 323 322 315 314 281 255 239 238 247 235 239 250 254 256 252 251 252 253 253 255 255 255 255 253 252 253 252 253 254 254 255 257 259 262 264 266 269 271 272
322 317 319 320 323 326 324 313 276 263 238 257 244 249 255 247 251 252 251 248 250 250 249 251 256 257 254 254 253 253 255 254 254 253 254 255 256 258 260 263 266 266 268
317 315 319 328 326 325 326 308 293 285 272 236 234 236 257 251 249 250 250 252 253 252 252 252 253 258 258 254 254 254 249 253 254 254 253 254 255 255 256 258 261 264 266
324 315 319 330 338 341 334 316 292 285 272 253 245 254 264 265 263 262 261 260 257 250 253 256 259 257 260 257 255 254 254 249 254 255 254 254 255 256 256 257 260 263 265
347 339 340 330 328 328 340 336 319 296 284 277 273 270 265 257 253 252 253 253 254 254 253 257 258 259 259 260 257 253 252 251 252 254 256 256 256 256 257 260 263 265 266
347 349 348 342 340 337 335 340 339 340 326 301 279 270 267 267 265 261 255 248 246 246 244 245 252 256 256 258 258 254 252 254 255 252 251 255 256 256 258 260 264 263 263
Height
5890 5890 5891 5891 5892 5893 5896 5898 5898 5897 5896 5896 5896 5896 5894 5894 5897 5899 5902 5906 5909 5910 5911 5912 5913 5915 5915 5916 5916 5917 5917 5916 5916 5916 5917 5918 5919 5918 5918 5917 5917 5917 5916
5882 5883 5884 5886 5887 5888 5890 5892 5893 5893 5893 5892 5891 5892 5893 5894 5896 5899 5901 5902 5903 5904 5905 5906 5908 5910 5912 5910 5911 5914 5914 5915 5914 5914 5914 5914 5915 5915 5916 5915 5913 5913 5912
5874 5877 5879 5879 5880 5881 5882 5883 5885 5887 5887 5886 5886 5887 5888 5890 5893 5895 5897 5899 5900 5901 5901 5902 5902 5904 5905 5905 5906 5908 5910 5910 5911 5911 5911 5911 5911 5912 5912 5912 5910 5909 5908
5859 5862 5869 5873 5875 5874 5874 5877 5879 5879 5881 5881 5881 5881 5882 5885 5887 5889 5892 5895 5896 5897 5897 5898 5899 5900 5900 5901 5902 5902 5903 5904 5905 5907 5907 5907 5907 5906 5907 5907 5907 5905 5903
5845 5857 5865 5864 5864 5868 5875 5874 5872 5874 5874 5874 5874 5875 5877 5879 5883 5883 5885 5886 5888 5890 5890 5891 5892 5891 5892 5893 5895 5896 5898 5900 5901 5902 5903 5904 5903 5902 5900 5900 5899 5899 5898
5866 5863 5862 5848 5825 5845 5854 5855 5861 5863 5862 5865 5868 5871 5872 5872 5871 5874 5875 5878 5880 5883 5884 5884 5884 5886 5886 5886 5888 5889 5891 5892 5894 5896 5896 5897 5896 5896 5895 5894 5892 5891 5891
5859 5856 5853 5849 5840 5821 5840 5835 5842 5844 5847 5848 5852 5856 5859 5863 5862 5864 5866 5867 5870 5873 5876 5879 5883 5885 5885 5885 5884 5883 5884 5886 5887 5887 5890 5890 5889 5888 5887 5887 5887 5885 5883
5851 5849 5847 5843 5837 5831 5813 5811 5800 5823 5810 5814 5833 5841 5848 5852 5857 5859 5861 5862 5863 5866 5868 5871 5874 5875 5876 5876 5877 5877 5877 5879 5880 5880 5881 5881 5881 5880 5879 5878 5878 5877 5878
5842 5840 5839 5827 5829 5827 5826 5818 5816 5800 5806 5821 5826 5831 5840 5846 5849 5847 5846 5848 5853 5858 5859 5859 5863 5864 5864 5865 5864 5864 5866 5867 5867 5869 5870 5870 5869 5870 5869 5869 5867 5868 5870
5832 5831 5827 5820 5821 5821 5813 5815 5812 5815 5820 5820 5824 5828 5831 5834 5836 5837 5831 5841 5845 5846 5849 5850 5852 5852 5853 5852 5854 5852 5851 5852 5853 5852 5853 5854 5855 5858 5857 5857 5857 5859 5860
5816 5816 5814 5811 5808 5807 5807 5803 5802 5805 5811 5814 5815 5820 5823 5825 5825 5825 5826 5829 5830 5829 5831 5834 5836 5834 5824 5838 5844 5843 5839 5838 5838 5837 5840 5841 5841 5844 5845 5846 5847 5849 5849
5797 5797 5799 5801 5800 5798 5798 5796 5795 5796 5799 5801 5804 5808 5812 5812 5813 5814 5814 5815 5815 5816 5817 5817 5821 5828 5829 5833 5835 5835 5829 5825 5826 5826 5829 5829 5832 5835 5835 5835 5837 5840 5840
5795 5789 5788 5786 5784 5783 5784 5784 5784 5784 5787 5790 5794 5797 5798 5800 5802 5800 5797 5798 5802 5804 5808 5808 5810 5814 5815 5815 5816 5819 5820 5819 5820 5819 5821 5822 5822 5823 5825 5827 5829 5831 5832
5788 5784 5778 5777 5774 5773 5771 5771 5770 5772 5775 5779 5781 5784 5787 5787 5788 5788 5787 5787 5790 5792 5795 5799 5798 5799 5801 5804 5805 5806 5809 5811 5811 5813 5814 5816 5816 5817 5817 5818 5819 5820 5822
5776 5772 5769 5762 5758 5758 5758 5759 5758 5759 5759 5761 5764 5766 5768 5770 5773 5775 5778 5777 5777 5777 5779 5783 5787 5790 5792 5792 5794 5795 5797 5799 5802 5803 5803 5805 5806 5807 5808 5808 5808 5808 5809
5761 5757 5753 5749 5746 5740 5736 5735 5736 5738 5738 5741 5743 5746 5749 5752 5755 5757 5759 5761 5764 5764 5765 5768 5771 5773 5777 5780 5780 5781 5783 5786 5788 5791 5792 5793 5794 5795 5796 5796 5797 5797 5797
5741 5738 5734 5732 5731 5727 5721 5715 5715 5711 5715 5720 5724 5728 5727 5731 5733 5737 5738 5742 5746 5749 5751 5752 5754 5757 5759 5763 5764 5765 5767 5769 5772 5775 5779 5781 5783 5784 5785 5785 5785 5786 5785
5725 5720 5716 5712 5710 5706 5699 5690 5685 5684 5692 5697 5701 5704 5706 5710 5714 5717 5719 5720 5726 5731 5736 5738 5740 5742 5743 5747 5749 5750 5752 5754 5756 5760 5763 5765 5768 5769 5770 5772 5772 5773 5773
5714 5708 5703 5696 5690 5683 5675 5664 5655 5652 5662 5672 5681 5676 5679 5689 5694 5699 5704 5707 5710 5714 5718 5722 5724 5726 5728 5731 5734 5737 5738 5740 5742 5745 5748 5750 5753 5755 5756 5756 5758 5759 5759
5701 5695 5688 5681 5673 5664 5651 5639 5630 5631 5637 5647 5648 5654 5664 5670 5676 5683 5688 5693 5696 5698 5700 5702 5704 5708 5712 5714 5718 5721 5725 5725 5727 5729 5732 5735 5738 5739 5740 5741 5743 5744 5745
5692 5686 5677 5668 5660 5651 5640 5630 5625 5625 5631 5633 5636 5642 5651 5658 5664 5670 5673 5675 5680 5683 5686 5688 5689 5690 5694 5696 5699 5704 5707 5710 5712 5713 5716 5718 5721 5724 5726 5728 5729 5730 5731
5680 5674 5667 5658 5650 5642 5633 5625 5623 5624 5624 5626 5629 5634 5639 5646 5651 5653 5655 5658 5662 5666 5668 5671 5674 5676 5678 5681 5682 5687 5692 5693 5695 5697 5700 5702 5704 5707 5710 5711 5712 5714 5716
5669 5663 5656 5648 5640 5633 5628 5621 5621 5621 5622 5621 5624 5629 5632 5634 5635 5637 5641 5643 5647 5652 5654 5656 5659 5661 5663 5665 5666 5669 5673 5677 5679 5680 5683 5686 5689 5691 5693 5696 5698 5700 5702
5663 5656 5649 5643 5636 5628 5622 5619 5617 5616 5615 5616 5617 5620 5619 5619 5622 5625 5628 5630 5631 5634 5637 5641 5643 5645 5646 5649 5650 5653 5656 5660 5663 5665 5668 5670 5674 5675 5678 5680 5682 5685 5686
5658 5651 5645 5638 5633 5627 5622 5616 5612 5610 5609 5608 5608 5608 5608 5608 5609 5610 5612 5613 5616 5617 5622 5624 5627 5630 5630 5632 5633 5636 5640 5643 5647 5651 5653 5655 5658 5660 5662 5664 5667 5670 5671
5654 5648 5641 5635 5629 5623 5619 5613 5609 5605 5603 5601 5600 5599 5598 5597 5597 5598 5599 5599 5601 5604 5607 5609 5611 5613 5614 5616 5618 5621 5624 5626 5629 5631 5636 5640 5642 5644 5647 5649 5652 5655 5656